Theta_e
331 333 333 330 329 330 333 333 333 333 332 332 332 333 333 332 332 333 334 333 331 332 334 334 331 329 328 329 329 329 329 329 328 328 328 328 328 333 343 346 345 344 345 346 345 343 345 346 344 343 343 341 342 342 340 341 340 340 338 337 335 334 334 334 334 332 332 332 332 331 330 330 330 330 331 331 331 331 332 333 334 334 334 334 334
332 331 330 329 329 330 333 333 333 333 332 330 332 331 331 331 331 332 332 329 330 331 332 332 332 332 330 331 330 330 329 329 330 329 330 328 328 333 342 346 346 344 344 346 346 344 345 347 344 343 343 341 340 341 341 341 340 340 340 338 336 335 334 334 334 333 333 332 332 332 331 331 331 330 330 330 330 331 331 332 333 334 334 334 333
331 331 330 328 329 331 331 331 332 332 332 332 332 333 331 331 331 331 330 330 330 330 331 331 329 331 331 331 331 330 330 331 330 331 331 330 329 329 333 341 343 344 344 344 345 346 346 347 346 344 343 344 343 343 342 341 342 341 341 339 338 336 334 333 334 334 333 333 332 333 332 332 332 331 331 331 331 331 331 331 331 333 334 334 333
332 332 331 329 330 331 330 332 331 333 335 334 333 334 333 333 334 334 332 330 329 329 330 329 329 331 331 331 331 332 330 331 331 331 331 331 330 330 330 334 339 341 342 342 344 345 346 347 347 348 347 346 346 344 343 342 343 340 339 339 338 337 335 334 334 334 334 333 333 333 333 333 333 332 332 331 331 330 330 330 331 332 333 334 333
332 332 336 330 331 330 331 332 332 334 335 334 333 333 333 333 333 333 334 331 331 331 332 330 329 330 330 332 331 331 331 331 332 332 332 331 331 330 330 332 333 337 339 341 340 341 343 345 346 345 341 339 339 340 343 343 343 342 340 340 339 338 337 335 335 335 335 335 334 333 333 333 333 333 332 331 331 331 330 330 330 331 332 333 333
331 331 332 331 330 332 332 333 333 334 333 333 331 331 331 330 330 330 333 329 328 329 327 327 327 328 329 330 330 330 330 331 331 331 331 332 331 331 331 331 331 332 333 337 339 339 341 341 342 341 341 341 340 340 340 340 340 340 341 340 338 337 337 337 335 335 335 335 335 333 334 334 333 333 333 332 331 331 331 330 330 331 332 333 333
333 332 332 332 333 333 333 332 332 331 331 330 329 329 329 328 328 327 326 327 326 326 324 323 324 326 328 329 329 330 329 329 330 331 332 331 332 331 330 330 329 329 330 330 335 335 334 334 336 337 338 337 339 341 343 343 340 337 338 337 335 336 334 337 336 335 335 335 335 334 334 334 334 333 333 333 332 331 331 331 330 331 332 333 333
334 334 331 332 332 331 331 331 330 329 328 328 328 326 326 326 326 325 324 323 323 321 322 321 322 324 326 327 326 328 326 327 328 329 330 330 328 326 325 325 325 325 326 324 324 327 329 330 331 334 334 335 338 340 342 342 341 339 337 336 337 337 336 335 336 336 336 335 336 335 334 334 334 334 334 333 333 332 332 331 331 331 332 332 332
335 334 332 331 331 330 329 329 329 327 326 325 325 325 324 324 323 325 323 320 319 318 319 319 321 323 324 325 324 325 325 325 326 326 327 325 323 321 320 321 323 325 319 318 318 319 323 327 328 329 332 334 336 340 340 340 339 339 339 337 335 336 337 335 335 335 336 335 335 335 335 334 334 334 334 333 333 333 333 332 331 331 332 332 332
333 332 331 331 329 328 328 328 327 325 324 323 322 323 322 322 321 322 322 319 317 316 316 317 321 322 322 322 322 323 323 323 323 325 323 321 319 317 317 319 318 317 316 315 315 316 316 320 324 326 329 332 331 330 330 328 328 329 332 333 334 336 336 336 336 335 336 336 336 336 334 335 334 333 334 334 333 333 332 332 331 331 331 332 332
329 330 328 326 325 325 325 326 326 323 321 320 320 320 320 320 319 319 320 318 315 315 315 316 319 319 320 321 320 321 323 322 322 321 320 318 317 316 316 316 315 314 313 312 313 313 314 315 316 317 321 330 330 326 325 325 325 327 330 331 331 331 333 335 336 337 336 336 336 336 335 334 334 334 333 334 334 334 333 332 332 331 331 331 331
325 326 325 324 322 322 322 323 323 321 319 318 317 317 317 317 318 318 316 316 315 315 314 315 316 314 316 319 318 318 320 320 320 320 319 315 312 313 313 314 312 311 310 310 311 312 312 313 319 315 317 321 326 322 321 321 321 323 327 328 328 329 330 332 336 336 336 336 336 334 334 333 334 334 334 334 334 334 334 333 332 332 331 331 331
324 323 322 324 321 320 320 320 320 319 318 317 316 316 317 315 315 317 315 312 312 313 313 314 312 312 312 314 314 317 321 318 318 318 316 313 310 310 312 310 309 308 308 308 309 310 311 312 313 312 311 316 313 315 316 317 318 320 324 325 326 326 328 330 333 334 334 335 335 334 333 333 333 333 334 334 334 334 334 333 332 332 331 331 330
323 320 320 319 318 318 318 317 318 317 317 317 316 317 314 314 314 313 314 312 310 311 311 312 309 309 310 312 312 313 317 315 316 317 314 311 309 309 310 308 307 306 306 306 307 308 309 310 311 309 309 311 308 308 308 309 312 317 320 322 323 324 326 328 330 332 332 330 329 332 333 333 333 334 334 335 335 334 334 333 333 332 331 331 330
319 320 317 316 316 316 316 316 315 317 314 313 312 312 312 312 312 311 310 311 311 312 310 311 306 308 311 312 309 308 309 310 311 315 312 309 308 308 309 307 306 305 304 304 305 306 308 308 307 306 308 308 305 305 305 307 310 315 316 319 320 322 324 326 328 328 330 329 328 328 326 327 331 333 334 334 334 333 334 333 333 333 332 331 331
317 317 315 314 314 314 314 314 314 315 312 311 310 310 310 310 311 312 309 306 306 307 311 309 309 306 304 306 308 306 302 305 306 309 310 307 306 306 307 306 304 304 302 302 303 304 305 306 305 305 306 305 303 302 303 303 308 311 313 315 317 320 322 324 325 324 326 327 327 327 325 325 326 326 330 333 332 332 332 333 333 332 332 331 331
315 315 316 313 313 313 313 313 313 312 312 310 309 309 309 309 309 309 308 305 304 305 307 309 309 312 309 305 303 303 303 305 305 302 308 306 305 304 307 305 303 303 300 300 302 303 304 303 303 303 304 302 301 301 301 301 302 306 306 313 316 317 317 319 320 321 324 325 325 325 324 324 324 325 327 331 332 332 332 333 333 332 333 332 331
314 314 315 315 312 313 312 312 311 311 311 310 309 309 308 308 308 308 307 307 304 304 303 308 309 310 309 309 308 302 301 302 300 296 304 305 304 304 302 303 302 301 300 299 300 301 304 301 302 301 302 300 300 300 300 300 303 302 304 308 315 316 312 314 317 318 321 322 323 323 324 324 324 325 327 329 332 332 332 333 334 333 333 332 332
313 313 313 314 312 312 312 311 311 311 313 309 308 308 309 309 310 307 307 307 304 303 302 303 304 307 307 306 305 304 303 300 296 298 294 298 301 301 299 301 301 300 299 298 299 300 300 301 300 300 300 300 299 299 299 299 303 304 308 311 311 311 311 311 314 317 319 319 321 322 323 323 324 324 326 326 326 330 333 332 333 333 333 332 332
312 313 314 314 313 311 311 311 311 311 311 308 308 308 308 309 309 307 308 307 305 303 302 303 302 302 305 303 303 302 301 300 299 298 297 293 293 298 298 298 298 298 298 297 297 299 299 298 299 299 299 299 299 298 298 298 299 299 303 309 310 309 310 310 308 310 313 317 320 321 321 321 324 324 326 325 324 327 329 333 333 333 333 332 332
312 312 311 313 315 311 311 310 310 311 313 308 308 307 307 306 305 305 304 304 305 304 302 301 301 299 299 299 299 298 298 298 298 298 296 291 291 291 291 295 295 296 296 296 297 298 299 298 299 299 300 299 298 298 298 298 299 299 305 308 309 308 308 308 306 306 307 312 315 316 318 319 321 324 324 321 321 321 325 331 333 333 333 333 332
311 310 309 309 309 310 310 310 310 312 311 307 307 306 305 305 305 304 303 302 303 302 301 300 300 300 299 298 296 296 295 294 294 294 294 294 289 289 290 290 289 292 295 295 296 296 297 297 297 297 297 297 297 297 297 297 299 300 304 307 307 307 307 307 305 305 306 307 310 311 314 316 320 323 321 320 320 320 321 324 330 333 334 332 332
308 307 307 307 308 311 308 308 308 310 306 304 304 305 304 303 303 303 302 301 300 300 300 300 299 299 297 297 295 295 293 292 291 292 292 290 289 289 290 291 290 290 292 295 296 295 296 296 296 296 297 297 297 297 297 298 302 303 306 306 306 306 306 305 305 304 305 306 307 307 311 315 318 319 319 317 317 318 322 325 327 329 333 332 332
305 304 305 305 306 305 307 305 305 303 303 303 303 304 304 303 302 302 301 301 301 301 299 298 297 297 296 296 295 295 294 293 293 293 292 291 290 288 289 290 290 290 293 293 294 294 295 295 296 296 296 296 297 298 298 298 298 304 303 305 304 305 305 304 304 304 303 304 304 305 309 313 314 316 316 315 315 316 319 322 321 319 325 334 334
303 303 303 304 305 303 303 303 303 304 303 303 303 303 303 302 302 301 301 300 299 299 298 297 297 296 295 295 295 294 293 294 294 293 293 292 291 288 289 290 287 288 290 291 291 293 295 294 295 296 296 296 297 296 297 297 298 302 305 303 303 303 303 304 304 304 302 302 303 304 307 309 310 312 312 311 313 315 316 317 315 313 313 316 330
303 302 302 303 303 303 303 302 302 303 304 303 303 303 303 302 301 300 300 299 299 298 297 297 296 296 295 294 294 294 293 294 293 293 292 291 289 288 288 288 288 288 289 289 291 290 291 294 295 295 295 296 296 296 296 297 297 302 304 301 300 302 302 302 303 303 303 303 303 303 304 306 307 308 309 309 310 310 311 312 312 310 309 309 311
302 302 303 302 303 303 303 301 301 301 301 301 302 301 302 302 302 301 300 299 298 298 297 296 296 295 295 295 295 294 293 294 293 293 293 292 291 290 288 286 286 286 287 288 289 289 289 292 294 294 295 296 295 295 296 297 299 303 303 298 297 301 301 302 302 303 302 302 302 303 303 303 304 304 304 305 307 307 309 310 311 309 309 308 309
303 302 301 301 300 300 301 300 300 301 301 301 300 300 300 300 300 300 299 301 297 296 296 295 294 294 294 294 293 293 294 294 295 293 293 293 292 291 290 287 285 283 286 286 287 287 290 290 292 294 294 294 295 295 299 298 296 302 302 297 296 297 300 301 302 302 301 302 302 303 302 302 302 302 302 303 306 307 308 309 308 307 307 307 309
303 302 300 300 299 298 298 298 299 299 300 300 300 300 300 299 299 298 298 298 298 296 296 295 294 294 293 293 293 293 293 294 293 294 293 292 292 291 290 288 288 285 284 284 285 286 289 291 289 292 294 294 295 296 295 295 298 300 298 297 296 296 300 302 302 301 301 301 302 301 301 302 301 301 302 304 305 305 306 306 305 306 306 307 310
301 301 298 298 298 301 297 297 298 298 298 299 299 299 299 299 298 298 298 298 297 297 297 295 294 295 295 293 293 292 293 292 292 293 292 292 291 291 290 291 290 286 286 284 285 288 288 291 291 291 293 294 295 295 295 295 300 299 297 296 296 296 301 301 300 300 300 301 301 299 300 300 301 302 303 303 303 303 304 304 304 304 305 307 309
300 297 296 296 296 296 296 296 297 297 297 298 299 299 299 298 298 297 297 297 296 295 295 295 295 294 293 292 292 291 292 291 291 291 291 292 291 291 290 291 291 289 287 287 285 288 290 289 291 293 293 294 295 295 295 295 298 299 297 296 296 300 301 299 300 300 300 300 300 301 301 300 299 300 301 302 302 303 303 303 303 303 304 306 306
296 296 295 295 296 295 296 296 296 296 296 297 298 298 298 297 297 296 296 296 295 294 294 294 295 293 293 292 292 291 291 290 290 290 290 291 291 290 290 290 290 289 289 287 286 286 290 290 291 292 293 293 294 293 293 294 296 300 296 296 296 300 297 296 299 300 300 300 299 299 300 299 298 299 300 301 302 302 302 302 301 302 303 303 303
295 295 295 294 295 295 295 297 295 295 295 295 296 297 298 297 296 296 295 295 294 294 295 293 294 293 294 292 291 292 291 289 289 290 290 290 290 290 291 290 289 289 288 287 286 287 289 292 292 292 293 294 292 293 292 293 294 294 297 295 296 295 295 295 296 299 299 299 299 299 299 299 298 300 301 300 301 301 301 300 300 300 300 302 303
295 294 294 294 294 294 294 294 294 294 294 294 294 296 297 296 296 297 295 295 294 293 293 292 292 294 292 291 291 291 291 289 289 289 289 289 289 289 289 290 288 289 290 288 287 287 286 289 290 292 292 293 291 293 292 292 292 294 294 294 295 295 295 295 295 296 299 300 299 299 299 299 299 299 299 299 299 299 299 299 299 299 300 301 300
295 294 293 293 293 293 293 292 292 292 293 293 293 294 295 295 295 294 295 294 294 293 292 292 292 292 292 292 291 291 292 288 289 288 289 288 289 288 289 289 288 289 289 289 288 286 286 287 290 290 291 291 291 291 293 293 294 294 293 293 294 295 296 296 295 296 298 299 299 298 299 299 299 299 298 298 298 298 298 298 299 299 299 300 300
294 294 293 292 292 291 292 291 291 291 292 292 292 293 293 294 295 295 294 294 293 293 293 292 292 291 291 290 291 290 291 288 287 288 288 288 288 289 289 289 289 288 289 290 289 288 287 286 288 289 291 290 291 292 293 293 292 292 293 293 294 294 294 295 295 295 297 299 299 299 299 299 299 299 298 298 298 298 298 298 299 299 299 299 300
293 293 294 292 291 291 291 290 290 290 290 291 292 292 292 293 294 294 293 293 293 293 293 293 297 291 292 290 290 290 289 287 288 288 288 287 288 289 288 288 289 289 290 289 289 288 287 287 288 290 290 290 291 291 292 291 291 292 292 292 293 293 294 295 296 296 298 299 299 298 298 298 298 298 298 298 298 298 298 298 298 298 299 299 299
292 292 291 292 292 290 290 290 290 290 290 290 290 290 291 292 293 293 293 293 293 292 292 293 293 292 292 290 291 289 288 287 288 288 287 287 288 288 288 288 288 288 288 288 289 288 288 287 287 287 289 289 289 290 291 291 290 290 290 292 293 293 293 293 294 296 296 296 295 295 297 297 297 298 298 298 298 298 298 298 298 298 298 298 298
291 291 291 290 291 290 290 290 290 290 290 290 289 289 290 291 292 292 292 293 293 292 292 293 292 292 291 291 290 289 288 287 288 288 288 288 289 289 290 289 289 288 288 288 288 287 287 287 287 288 288 289 289 288 290 291 291 290 289 289 290 292 293 293 293 294 295 295 296 297 296 297 298 298 298 298 297 298 298 298 298 298 298 298 297
291 290 290 290 291 290 290 291 291 291 290 290 289 289 289 289 291 291 292 293 293 293 293 292 292 291 291 291 290 290 289 289 288 289 288 289 289 289 289 289 289 288 288 288 287 287 287 286 286 286 287 287 288 289 290 290 288 289 290 290 288 289 291 292 292 292 294 295 294 294 296 296 296 297 297 297 298 298 298 298 298 298 299 298 297
293 290 290 290 289 289 289 289 289 290 291 291 291 290 289 289 289 291 291 292 292 292 292 291 291 291 291 291 290 290 295 301 301 299 298 298 293 290 290 289 290 289 288 287 287 287 286 286 286 287 287 286 287 287 287 287 287 287 289 290 289 290 291 291 292 294 294 294 294 294 293 294 294 294 294 293 294 296 296 298 298 298 298 298 297
291 291 290 290 289 288 288 288 289 290 290 291 295 295 297 291 290 291 293 291 292 292 293 291 291 291 291 290 295 303 302 301 300 298 296 296 297 294 292 291 290 288 288 287 287 287 286 286 286 286 285 285 286 287 287 287 289 290 289 290 289 290 290 290 291 293 295 294 293 292 293 294 293 293 293 293 294 296 295 294 294 295 296 296 296
291 292 289 288 288 288 288 288 288 289 290 292 293 292 293 296 292 292 292 291 290 290 292 291 290 292 291 290 289 295 298 297 295 295 295 294 293 293 294 295 295 292 288 287 286 287 287 286 286 286 285 285 286 287 287 288 288 289 289 289 289 289 288 287 286 290 296 294 292 291 291 293 293 291 292 292 293 294 294 294 296 297 296 296 297
290 289 288 288 287 287 288 288 288 289 289 294 292 293 293 293 295 293 291 291 291 290 289 289 290 291 289 289 290 291 292 293 295 292 292 293 293 293 293 293 293 292 292 290 288 286 286 286 286 286 286 286 286 287 287 288 288 288 289 289 289 289 288 288 288 287 292 294 291 290 290 293 293 292 291 292 293 293 294 295 296 296 296 296 297
288 288 287 287 286 286 287 287 288 288 288 293 292 292 292 292 292 292 290 290 290 289 289 290 289 289 290 291 291 291 290 297 297 290 289 290 293 293 293 293 292 293 291 290 291 291 289 287 286 286 286 287 286 287 289 289 289 288 288 288 289 289 289 288 289 289 291 294 291 289 288 291 291 291 290 292 293 293 294 295 296 296 296 297 297
287 287 286 286 286 286 287 287 287 287 288 292 292 292 292 291 291 292 288 289 289 289 289 289 290 289 289 289 288 289 290 290 291 290 290 289 289 289 288 288 288 290 291 291 291 291 292 290 287 286 288 288 287 288 290 290 288 288 288 288 289 289 289 289 291 291 292 294 291 290 288 289 291 290 289 291 292 293 293 294 295 296 296 296 296
287 287 287 286 286 288 286 285 287 287 289 291 291 291 291 291 291 291 287 289 288 288 288 289 288 288 288 289 287 288 289 289 292 293 290 289 288 288 287 287 287 288 288 288 288 289 290 289 288 288 288 289 289 289 289 290 290 290 290 290 290 290 291 292 292 292 292 293 292 290 285 288 290 289 289 290 292 292 293 294 295 296 296 296 296
287 288 287 288 287 285 285 285 286 285 287 291 291 291 291 291 292 290 286 286 286 287 287 288 288 288 288 288 288 289 290 290 293 292 291 290 288 287 287 287 287 287 287 292 292 292 291 290 289 289 290 290 291 290 291 290 291 291 292 293 292 291 290 288 287 289 289 292 292 290 287 287 290 288 288 290 291 290 292 292 295 296 296 296 297
288 288 288 287 287 286 286 286 285 285 287 290 290 291 291 290 290 286 285 286 286 286 285 286 287 288 288 289 290 290 290 289 292 290 290 291 287 286 286 286 286 286 287 289 291 291 291 291 291 291 290 290 290 291 291 291 291 292 291 290 288 289 287 285 286 287 287 290 291 291 289 287 289 289 289 290 290 290 291 292 293 295 296 296 296
289 289 289 288 286 287 286 285 285 286 287 290 291 290 291 291 291 285 286 285 284 285 285 286 287 287 287 296 296 290 289 289 291 290 289 290 287 286 285 285 285 285 286 288 288 289 291 291 291 290 290 290 291 291 291 291 291 292 291 288 289 289 287 287 285 286 287 289 290 292 289 287 289 289 288 290 290 290 291 292 293 294 296 296 296
291 290 292 289 287 287 287 286 295 288 287 290 291 290 290 291 290 284 285 283 284 283 284 287 287 287 287 290 293 293 291 291 290 289 289 290 287 286 285 284 284 284 286 287 286 287 287 287 287 288 289 290 291 290 291 292 292 294 293 291 291 289 287 287 287 286 284 286 290 292 286 286 287 288 288 286 285 289 291 292 293 294 295 298 300
Wind_Speed
0 1 1 1 1 0 0 1 1 3 2 2 1 3 4 4 3 3 3 3 3 3 3 3 3 1 2 3 3 3 3 4 3 3 3 3 3 4 7 8 9 10 8 11 12 12 17 16 13 13 13 14 14 12 11 15 13 12 13 14 14 14 14 13 12 10 10 10 9 9 8 7 8 9 9 8 7 6 7 5 5 5 5 5 5
2 2 1 1 1 1 1 0 1 2 1 2 0 1 3 3 2 3 2 2 3 3 3 4 4 4 3 3 3 3 3 4 5 4 3 3 3 3 5 6 8 9 9 11 13 13 16 16 9 14 14 13 16 12 15 15 13 14 14 15 14 15 12 11 11 11 11 10 10 10 9 8 9 9 9 10 9 7 8 7 6 6 6 5 6
2 1 2 2 0 1 1 2 4 4 1 1 1 2 1 1 2 2 2 3 3 2 3 4 4 4 4 4 5 5 4 4 5 4 4 5 4 3 3 6 7 9 9 10 11 12 13 14 11 13 15 16 14 15 13 15 15 15 14 14 16 14 13 12 14 11 12 12 11 11 10 10 10 10 10 9 10 9 10 9 8 8 7 7 7
2 1 1 1 0 1 2 5 4 4 3 3 4 3 3 2 1 2 2 2 2 3 3 3 4 4 4 4 4 4 4 4 4 4 4 4 5 5 4 4 6 8 9 9 10 10 12 12 13 13 14 16 16 15 15 14 12 12 13 14 15 15 15 14 13 12 14 13 12 12 12 12 12 11 10 10 10 10 10 10 9 8 9 9 8
3 2 1 1 0 2 4 4 4 4 4 4 4 4 5 5 5 4 4 5 5 5 4 4 5 5 5 5 5 5 5 5 5 5 5 4 5 5 6 5 6 8 11 11 12 13 12 12 14 14 16 18 19 17 16 16 14 10 12 13 11 12 14 14 14 14 14 15 15 14 13 13 13 13 12 11 11 10 10 10 10 9 9 11 10
2 2 2 1 1 4 4 5 4 5 5 5 6 5 5 6 5 5 5 5 5 5 6 6 6 5 5 5 5 5 5 5 6 5 5 5 5 6 6 6 6 6 7 10 12 14 15 16 15 15 14 15 15 16 16 19 18 15 11 12 11 11 14 16 14 16 15 16 17 15 14 14 14 13 13 12 12 11 11 11 11 10 9 12 11
2 2 2 1 3 5 5 4 5 5 6 5 5 5 5 6 5 6 4 6 4 4 5 5 5 6 6 5 6 6 6 6 6 6 6 6 7 8 8 8 8 8 9 9 11 18 21 19 17 16 16 17 18 16 17 17 16 13 14 10 11 12 10 16 15 16 16 15 16 15 14 14 14 14 13 13 13 12 12 12 12 10 9 11 11
1 1 2 3 5 5 4 4 4 5 6 5 6 6 4 5 5 5 5 5 6 6 5 6 5 6 5 5 5 6 6 6 7 7 7 7 8 8 8 9 9 9 10 9 9 11 21 20 19 17 18 20 22 21 20 18 15 13 10 13 16 16 15 15 17 17 16 16 18 16 15 15 15 15 15 14 12 14 13 12 13 12 10 12 11
2 1 3 4 5 5 4 4 4 6 6 5 6 5 5 4 5 5 4 4 6 6 6 6 6 5 4 5 5 5 6 6 6 6 7 9 9 8 9 9 9 12 9 9 8 8 14 20 18 18 18 24 26 28 30 30 26 17 15 11 14 14 15 12 15 16 17 16 18 17 15 15 15 15 15 15 14 14 14 13 13 14 12 12 12
2 2 4 4 4 5 4 4 4 6 6 5 5 4 4 4 5 5 6 6 7 7 7 6 5 5 5 4 5 5 5 6 6 7 8 9 9 9 8 8 9 10 9 9 9 8 9 12 17 16 17 22 25 27 29 29 28 26 24 23 22 18 14 13 15 15 17 17 17 17 18 15 16 17 17 16 15 15 15 15 15 15 14 13 13
3 3 4 4 5 5 4 3 4 5 6 6 6 5 5 5 5 4 4 6 5 4 4 5 5 4 4 4 3 3 5 5 6 7 8 8 9 8 7 9 9 9 10 9 8 9 9 9 9 9 10 23 22 24 25 27 27 26 25 23 22 22 21 21 15 13 20 21 17 19 18 13 16 17 16 17 17 17 17 16 15 16 14 14 14
3 3 4 5 5 4 4 4 4 5 7 7 6 6 5 4 5 4 4 4 6 6 6 5 4 2 3 4 3 3 5 6 8 8 7 8 8 7 8 8 9 9 10 9 9 9 9 10 9 9 8 14 21 22 23 24 25 24 24 24 23 22 21 21 22 19 11 16 19 20 18 14 17 17 17 18 19 18 17 17 17 16 16 16 15
4 3 4 5 5 3 4 5 6 7 7 6 4 4 3 2 2 4 5 7 8 8 8 4 4 5 4 4 4 3 5 8 8 8 8 7 7 8 7 9 9 10 9 8 9 9 9 10 9 9 9 9 12 20 22 22 24 23 23 24 23 22 22 22 22 23 24 19 15 16 15 19 18 16 18 19 19 18 18 17 17 17 16 16 17
4 4 5 5 5 6 6 5 5 6 6 5 5 5 6 6 3 4 5 7 6 7 8 5 5 3 4 5 6 3 3 6 9 7 7 8 8 8 8 9 10 9 8 8 9 10 10 9 9 10 9 10 11 11 12 13 16 23 22 23 23 22 22 22 21 23 23 21 21 13 14 18 20 19 18 21 20 20 19 17 18 18 18 17 17
5 6 6 6 6 6 5 5 6 5 6 7 6 7 5 6 6 4 4 4 5 6 8 7 2 3 1 2 3 3 3 4 3 6 7 7 8 9 8 9 11 9 9 8 9 10 9 10 10 10 10 11 11 11 11 12 17 22 22 23 23 23 23 22 22 22 22 23 21 20 20 17 15 17 19 22 21 19 18 18 20 19 17 17 17
7 6 6 6 6 6 5 6 6 5 6 6 6 7 6 7 7 7 3 5 5 7 7 7 5 3 4 2 1 2 4 3 7 4 6 9 10 10 8 8 9 10 9 10 9 9 9 9 11 10 10 11 11 11 11 12 18 20 22 23 24 23 23 22 22 22 23 22 21 21 20 20 20 21 18 21 20 18 18 18 21 20 17 18 18
6 6 6 6 5 5 6 6 7 6 5 6 6 5 5 6 7 7 7 3 5 4 7 7 9 7 2 3 3 4 1 4 6 2 1 6 7 10 9 7 9 9 9 9 9 8 8 10 10 9 10 11 11 11 10 11 11 12 14 19 23 23 23 22 23 23 23 23 22 21 21 20 20 20 20 17 21 19 17 19 20 22 21 21 20
6 6 6 5 6 6 6 7 6 6 6 6 5 6 7 7 6 6 7 6 4 5 5 5 8 10 10 7 4 2 3 4 4 4 4 2 5 8 10 7 7 8 8 10 10 9 8 9 9 10 9 10 10 10 10 10 12 10 10 14 23 23 22 23 23 23 24 24 23 23 22 22 21 20 20 17 16 23 24 24 22 23 23 22 21
5 5 5 5 5 6 6 6 6 6 5 6 7 6 6 6 6 6 6 5 4 7 6 4 4 9 8 9 9 7 5 4 3 4 4 4 4 6 7 8 6 7 9 11 9 8 8 9 9 9 9 9 10 10 10 10 14 15 18 22 23 22 22 22 24 24 25 25 24 24 23 22 22 21 22 21 20 17 24 25 23 24 24 24 22
5 5 5 5 5 6 6 6 6 5 5 6 6 5 6 6 6 6 6 6 6 7 7 7 7 4 5 8 7 7 7 8 4 2 1 6 3 2 5 7 4 5 7 10 10 8 8 8 9 10 8 9 9 10 10 10 10 10 9 22 22 22 22 21 22 23 24 25 25 24 24 23 22 23 23 22 21 22 19 25 25 26 26 25 26
5 5 5 5 5 5 5 5 6 5 5 6 5 6 6 7 8 8 8 8 7 6 8 8 8 7 5 6 6 7 6 7 7 5 6 4 5 8 12 2 1 5 6 8 8 7 7 8 9 9 8 8 9 10 10 9 9 10 11 22 22 22 21 22 20 19 21 24 25 25 25 24 23 22 22 23 23 23 25 18 29 25 25 27 27
4 6 5 5 5 5 5 5 5 5 5 6 6 7 7 7 7 7 8 9 7 8 9 8 8 8 8 6 8 6 7 7 9 8 3 6 4 9 9 14 15 7 5 11 10 7 6 6 7 7 7 8 9 9 9 9 9 9 13 23 21 21 21 21 20 18 20 23 24 25 24 24 23 22 22 23 24 24 22 25 19 31 27 30 28
4 5 5 5 5 5 6 6 6 6 6 7 6 6 6 7 7 8 8 9 8 9 10 9 9 9 9 9 8 8 7 7 6 7 6 5 7 8 10 9 8 11 6 8 8 7 5 6 8 8 7 8 8 8 8 9 11 15 23 21 21 21 21 20 19 18 19 21 24 23 24 24 23 22 22 23 24 24 23 22 24 19 32 29 30
4 5 5 5 5 5 5 6 7 7 7 5 6 6 6 7 7 7 7 8 8 9 9 10 10 9 9 8 8 7 7 7 5 5 6 5 3 4 7 9 5 2 6 8 3 7 5 8 8 8 7 9 9 9 8 8 9 21 17 19 21 22 21 21 19 18 17 18 19 22 24 24 23 23 24 24 24 24 24 23 23 26 20 30 29
5 6 4 5 5 6 7 7 6 6 6 6 5 6 7 7 8 8 9 9 8 9 9 9 9 9 8 7 7 7 7 4 4 4 3 2 4 6 4 3 4 8 6 4 5 7 1 6 8 8 8 9 9 9 9 9 9 17 21 12 20 20 21 21 21 20 18 17 18 22 24 24 24 23 24 25 24 24 24 24 22 22 23 21 26
5 5 3 5 6 5 6 6 5 6 6 6 6 6 7 8 8 9 9 8 9 10 10 9 9 8 7 7 6 6 5 4 3 4 4 4 4 3 5 3 3 5 5 4 4 6 2 3 6 6 6 8 9 9 9 10 9 18 23 15 12 17 20 19 21 21 21 20 20 22 22 24 23 23 24 24 24 22 23 22 21 20 22 22 19
6 3 4 6 5 6 6 6 6 6 6 6 6 6 7 8 8 9 8 8 9 9 8 9 9 9 7 6 6 5 5 4 5 5 4 4 3 3 5 9 6 3 8 3 3 2 5 6 7 4 6 8 8 8 9 9 12 20 20 11 9 15 16 17 20 22 22 21 18 18 19 20 21 22 23 23 23 23 22 22 21 21 23 22 22
4 5 4 5 6 6 6 6 6 6 6 6 6 6 7 8 8 8 9 6 9 10 8 9 9 7 6 4 6 6 5 5 5 5 5 4 4 4 4 3 5 7 7 9 9 6 3 7 6 2 7 8 8 8 10 11 9 18 15 9 9 10 14 18 20 22 21 18 17 17 18 19 18 20 21 22 23 22 22 22 22 22 21 22 22
5 4 6 5 6 6 6 6 6 5 6 5 6 6 7 8 8 9 9 7 8 8 7 8 6 6 5 5 5 5 5 4 5 5 5 5 5 4 3 3 2 2 6 5 8 7 10 10 9 6 9 9 8 7 8 7 11 14 9 9 9 9 13 21 19 18 18 18 18 17 19 19 21 21 23 24 24 23 23 23 22 21 21 22 22
5 5 6 6 6 6 6 6 5 6 6 5 5 6 8 8 8 8 7 7 7 6 6 6 5 5 5 5 5 6 4 5 5 4 4 3 4 4 3 4 1 2 3 5 7 5 7 9 7 9 11 12 11 9 7 8 13 15 9 9 10 9 18 21 19 17 17 18 18 18 19 19 20 22 24 24 24 23 22 23 23 21 21 21 21
6 6 6 6 6 6 6 6 6 6 6 6 5 6 7 8 7 7 6 7 7 6 4 5 4 5 5 5 4 5 4 5 4 4 3 3 4 3 4 3 3 1 3 3 8 3 4 9 8 9 11 12 12 12 10 9 11 14 10 9 9 15 22 14 18 17 18 18 18 19 22 20 19 20 22 24 24 23 24 23 23 23 23 21 19
6 6 6 6 5 6 5 6 6 6 6 5 6 6 7 7 7 7 6 7 7 6 4 4 4 5 5 4 3 3 3 3 3 4 3 3 3 4 3 4 4 3 2 3 6 10 7 8 10 11 11 12 12 12 12 11 10 14 10 10 11 15 11 10 15 17 17 18 18 17 18 19 20 21 21 24 25 24 24 24 23 23 22 20 17
6 6 6 5 5 5 6 6 6 5 5 6 5 6 7 7 7 7 6 7 7 5 5 4 4 4 4 4 3 2 1 3 3 3 4 3 3 4 3 4 5 5 2 3 6 10 8 5 8 9 11 11 10 10 12 11 13 12 11 10 11 10 10 10 10 14 18 18 18 18 19 19 21 22 24 23 24 24 23 21 20 20 19 18 17
5 6 6 4 4 5 6 6 6 5 5 5 4 6 7 7 5 5 6 6 6 5 4 4 4 3 3 4 2 1 1 3 3 3 3 3 3 4 4 4 5 6 4 2 5 6 13 9 9 8 10 9 11 10 11 12 12 13 14 13 10 9 10 10 10 10 16 17 19 20 20 19 20 20 20 19 20 21 21 20 20 19 18 17 16
4 5 5 5 5 5 6 5 5 5 5 5 4 6 6 6 6 4 5 6 6 5 5 4 4 3 3 3 1 1 2 3 2 3 3 3 3 3 5 4 5 7 7 4 4 7 10 11 9 11 9 9 9 13 12 10 11 11 14 13 12 10 9 10 10 10 15 18 19 20 20 20 19 20 20 20 20 20 20 20 19 19 19 17 14
7 5 5 5 4 5 6 5 5 5 5 5 5 5 5 5 5 5 4 5 4 5 5 4 4 3 4 3 0 1 1 2 3 3 3 3 3 4 5 6 5 7 7 6 6 6 7 11 10 10 11 10 10 10 11 10 11 11 10 12 12 12 11 10 10 11 13 20 21 21 21 20 19 19 20 20 20 20 20 19 19 19 19 16 14
5 6 5 4 4 5 6 5 5 5 4 4 5 5 4 4 4 4 4 4 4 4 4 4 4 4 3 3 2 2 2 3 4 4 4 5 5 4 5 6 6 6 6 7 7 6 8 11 12 9 9 10 9 11 10 11 11 10 10 11 12 12 12 10 10 11 17 20 20 20 19 19 19 19 19 19 19 19 19 19 19 19 19 18 17
5 5 5 4 4 5 5 5 5 5 4 4 4 4 4 4 4 3 3 3 3 3 3 3 3 3 3 3 3 3 2 2 4 4 4 5 5 6 6 7 7 6 7 8 7 7 8 9 10 13 9 10 11 9 10 11 12 13 12 11 10 10 11 12 10 9 8 9 9 12 14 14 16 18 19 19 19 19 19 20 20 20 19 19 20
6 6 5 5 4 5 4 5 5 5 4 4 4 3 4 4 4 4 3 3 2 1 2 3 3 2 2 3 3 3 3 3 4 4 4 5 5 7 7 7 7 6 8 8 8 8 8 9 10 9 11 9 8 12 11 10 11 10 13 13 13 9 9 9 12 9 7 11 12 16 16 16 19 16 16 18 19 20 21 21 21 21 20 19 19
6 5 5 5 4 4 4 5 4 4 4 4 4 3 3 3 4 3 2 4 3 1 1 1 2 2 3 3 3 3 3 4 4 5 4 5 5 6 8 6 7 7 8 8 8 8 9 9 9 11 9 10 11 9 9 10 11 9 7 10 14 14 14 10 7 12 13 11 12 10 9 11 12 14 16 18 20 21 21 20 22 21 21 19 17
5 5 5 4 5 5 5 5 5 4 5 4 3 2 3 3 3 4 3 1 2 3 2 0 1 2 2 3 3 4 3 7 8 8 9 8 5 6 8 7 7 7 7 7 8 8 8 8 10 9 10 11 10 12 12 11 12 13 13 10 12 11 12 14 12 9 10 13 13 11 9 7 10 10 10 10 11 15 17 21 18 23 21 18 17
5 5 5 4 4 5 5 5 5 5 5 3 4 5 4 3 4 4 4 3 2 1 1 0 0 1 3 3 4 8 8 9 9 11 12 12 11 9 9 8 8 7 7 7 8 8 8 9 10 11 12 12 12 12 13 13 12 13 13 12 13 13 14 14 13 8 10 10 11 14 10 5 8 11 8 10 10 11 10 10 10 13 15 17 17
5 4 4 5 4 4 5 5 6 5 4 3 5 5 6 6 5 5 4 3 3 2 0 1 1 1 3 4 4 5 5 7 7 11 11 12 13 14 15 14 11 8 7 9 8 7 8 9 10 10 11 13 13 12 12 13 12 13 14 14 14 14 14 16 17 12 4 7 11 13 15 4 7 12 11 10 10 10 10 11 16 19 20 19 18
4 5 5 4 4 4 4 5 5 5 4 5 6 7 8 9 7 5 4 3 3 2 2 1 3 3 3 3 4 3 4 4 5 5 8 12 14 14 14 14 14 14 11 7 8 9 9 10 11 11 11 12 13 13 13 13 14 14 14 13 14 15 16 16 14 15 12 12 13 13 16 8 7 11 13 10 9 9 11 14 18 19 20 20 19
4 5 4 4 4 3 5 6 5 4 4 6 6 7 8 8 7 5 3 3 3 2 2 0 3 4 3 3 4 4 4 9 8 5 5 8 11 14 14 12 12 14 14 15 12 8 8 9 10 12 11 13 14 13 13 16 15 16 16 15 14 14 14 15 15 16 15 13 14 13 16 10 8 12 13 11 9 9 10 13 18 19 20 19 19
5 5 4 4 4 4 4 5 4 4 4 5 5 7 8 8 8 6 3 3 3 2 2 1 1 2 2 2 3 6 7 8 7 6 6 8 9 8 8 8 7 10 12 13 14 14 10 8 9 11 13 11 13 15 16 15 16 16 16 17 17 17 16 16 17 17 16 11 13 14 14 10 10 11 13 11 8 9 9 12 17 18 19 20 19
7 6 6 5 4 4 4 4 5 4 3 4 5 7 7 7 7 5 3 3 3 3 2 2 2 1 2 2 3 5 7 7 7 8 7 8 8 7 7 8 8 9 9 9 8 9 9 9 9 10 13 13 12 15 15 15 15 14 14 17 19 19 18 16 15 14 15 11 12 10 14 11 11 12 12 11 10 10 9 12 17 18 19 19 19
4 4 4 4 4 4 3 4 5 4 3 3 4 6 6 6 6 4 3 3 3 3 3 3 3 2 2 2 3 5 6 7 9 14 11 8 6 7 8 8 8 8 8 9 12 12 11 10 10 11 12 15 18 17 17 17 16 14 13 13 15 14 15 14 13 13 11 10 8 10 12 12 12 11 12 10 9 10 10 9 13 18 19 19 19
6 5 5 4 3 4 4 4 5 4 2 2 4 5 5 5 5 4 3 3 3 3 2 3 3 3 3 3 3 4 5 6 10 14 13 10 5 7 7 8 8 7 9 9 12 15 15 17 18 19 20 21 21 22 23 25 18 16 15 14 14 15 13 15 14 14 13 10 10 9 11 12 12 9 11 10 9 10 10 10 9 13 17 18 19
6 5 4 4 3 3 4 4 3 4 2 1 2 4 4 5 4 3 2 3 3 3 3 2 2 3 4 7 6 4 5 6 12 15 12 7 5 6 6 8 9 10 10 9 9 10 13 15 16 18 19 19 20 21 21 21 21 16 13 16 18 15 16 18 19 16 16 10 8 6 8 11 11 9 10 10 10 9 10 10 10 10 13 14 17
6 5 4 5 3 2 2 3 5 4 3 1 1 2 3 3 2 2 2 3 4 3 3 4 3 4 5 5 7 5 5 8 13 13 12 7 5 5 5 6 8 10 10 11 11 12 13 13 13 13 13 15 14 14 15 22 21 16 13 15 15 13 15 17 18 15 14 5 5 6 10 11 8 9 7 9 10 10 7 10 8 7 6 6 8
Wind_Direction
98 227 326 294 282 292 74 349 279 281 313 318 278 304 324 333 323 323 334 330 335 327 334 336 339 302 257 292 280 273 268 268 265 266 268 273 267 273 267 251 245 247 240 232 246 273 273 267 273 285 282 274 268 260 252 259 258 262 229 220 219 220 220 223 229 224 224 226 219 227 226 234 243 245 241 235 240 251 234 227 225 228 235 238 226
350 350 337 282 294 325 71 334 342 339 314 304 349 292 305 323 336 344 343 341 352 338 351 346 352 356 356 336 331 328 325 335 333 329 305 292 276 277 289 278 266 259 254 245 256 252 259 266 277 276 279 276 273 247 258 253 244 253 242 234 226 225 220 228 236 228 229 227 220 221 222 222 235 240 247 243 242 249 238 233 226 226 229 231 229
39 337 300 270 312 36 75 66 44 18 333 306 352 347 322 323 329 337 4 14 356 332 354 356 351 353 352 353 338 334 332 332 328 324 324 319 320 313 302 293 283 277 272 266 261 266 268 274 256 249 262 268 268 261 242 252 249 251 247 239 232 227 214 217 230 232 238 237 222 217 220 222 226 233 236 238 241 246 239 236 240 229 227 234 223
6 320 240 280 269 107 66 58 40 14 26 32 25 24 39 22 24 11 19 24 348 9 0 7 353 345 342 346 337 338 337 330 324 322 317 319 321 322 318 310 303 296 291 285 281 278 279 278 277 270 258 256 258 262 265 256 253 263 262 245 236 229 215 215 221 219 237 240 235 221 223 226 228 230 231 234 237 239 240 240 240 246 226 226 223
355 359 353 288 310 63 58 57 50 39 35 30 32 33 32 24 16 5 22 20 23 9 360 12 6 349 349 346 345 343 338 338 334 334 333 325 325 323 325 334 335 330 327 321 318 315 307 299 295 300 314 316 308 297 280 273 268 245 251 243 232 240 227 217 216 221 224 234 236 228 225 227 231 230 230 231 231 234 237 239 240 244 237 219 220
12 350 23 315 11 48 54 51 47 52 50 40 44 31 37 35 13 18 18 27 22 11 13 5 352 347 358 347 349 344 341 346 347 341 338 344 342 350 355 358 0 357 351 341 339 337 340 346 351 348 343 333 325 312 304 296 293 288 259 247 229 237 235 226 212 221 223 230 232 234 226 227 230 231 232 232 231 230 233 237 237 237 239 219 218
3 354 11 353 62 57 53 55 56 54 54 41 52 39 42 42 22 22 16 27 18 21 14 6 355 352 347 345 352 345 356 359 356 1 4 2 21 30 28 28 22 25 19 21 13 19 25 23 13 6 2 357 346 332 317 308 304 309 296 280 257 247 250 250 222 222 223 230 236 236 225 227 229 231 230 232 233 231 232 235 235 233 229 216 220
300 319 70 69 75 73 61 59 59 61 54 44 43 36 26 45 32 35 32 21 15 10 11 3 355 346 342 348 359 4 12 17 22 25 27 43 42 37 34 31 29 29 29 24 22 18 20 20 18 12 12 10 10 7 358 342 334 323 321 312 305 293 263 251 242 230 229 226 235 235 230 228 230 231 231 228 226 232 231 231 233 229 224 220 220
75 60 91 80 83 78 57 60 62 66 58 47 46 32 34 39 38 33 51 42 25 8 4 359 343 337 340 351 14 14 26 24 28 34 38 48 41 37 35 33 32 31 28 23 20 14 11 14 16 13 16 24 27 30 33 34 35 21 1 2 338 312 286 259 251 245 236 233 236 234 232 233 233 236 236 230 223 227 229 228 230 230 223 218 218
81 94 81 77 73 73 60 54 67 71 67 56 45 33 42 46 48 32 40 43 30 14 354 342 332 334 344 350 14 30 29 30 36 43 46 45 41 36 31 34 34 30 26 22 17 14 12 9 12 11 18 29 32 33 34 34 31 32 32 30 26 20 360 316 270 246 259 240 237 237 234 232 229 232 235 234 226 224 225 225 226 227 226 221 219
62 70 81 69 68 65 66 56 66 73 69 56 38 28 33 33 52 43 49 59 46 16 347 321 325 329 334 337 15 49 46 42 49 51 50 47 42 35 35 35 34 30 25 19 14 12 13 14 11 11 15 25 30 31 30 28 26 23 22 21 21 18 14 12 353 265 242 245 240 240 236 229 234 230 229 235 231 226 225 225 225 223 223 222 220
51 57 76 71 67 56 64 53 61 74 65 55 39 33 23 25 37 43 45 47 37 11 2 351 323 333 334 337 29 68 81 58 55 55 55 47 39 36 38 33 36 28 24 17 13 12 15 13 14 12 9 21 22 28 26 25 23 22 19 16 13 11 8 5 11 8 303 257 252 252 244 233 236 234 229 236 237 230 225 224 226 225 222 223 221
45 44 58 71 68 64 66 57 59 65 68 63 52 44 32 38 60 51 49 48 27 9 1 345 17 352 5 355 2 26 86 61 59 55 53 48 43 42 36 38 32 27 19 13 14 14 13 15 15 12 11 26 16 21 20 21 19 19 17 14 9 7 6 4 4 9 14 358 300 279 271 252 241 238 228 230 236 235 231 227 225 225 226 226 224
49 51 56 55 61 57 53 56 63 72 75 68 56 45 34 32 22 61 43 61 49 12 0 9 28 23 331 344 350 17 66 64 57 51 53 51 44 44 39 39 33 25 16 15 17 15 13 16 16 13 13 26 18 17 15 13 14 13 13 10 7 5 4 2 2 3 8 10 10 351 304 269 246 234 228 228 229 232 232 225 223 223 223 226 227
43 49 54 47 54 59 54 57 56 67 70 56 49 44 35 36 34 57 41 43 57 26 19 34 0 304 234 13 28 354 322 11 39 51 56 51 48 44 40 39 33 26 16 15 18 13 13 16 15 13 14 29 17 17 14 11 9 9 8 7 5 4 2 359 1 1 0 4 0 360 1 355 334 297 251 237 233 233 232 229 226 222 222 219 223
45 50 55 52 53 61 63 61 60 59 72 69 53 48 35 34 35 36 61 55 28 26 21 15 29 4 32 63 297 97 348 4 339 326 74 59 51 41 36 34 29 24 18 19 13 13 12 17 14 12 19 24 19 15 12 7 5 6 5 3 2 1 -0 358 360 358 355 357 356 356 354 352 347 346 319 259 231 226 231 231 228 223 219 220 218
48 50 59 59 58 65 71 68 67 55 64 69 63 56 51 45 41 48 42 91 57 43 24 25 32 26 112 63 9 27 54 293 310 289 359 56 49 50 33 31 30 23 19 13 8 13 14 14 13 11 23 20 17 12 9 4 3 0 358 360 360 359 0 359 358 356 353 353 352 353 350 348 346 342 340 308 256 229 228 230 225 224 219 215 216
49 52 55 61 62 62 67 70 65 60 63 71 66 57 46 46 36 54 53 37 91 67 39 24 43 42 45 61 84 114 325 303 31 321 7 71 74 53 33 21 30 21 24 12 7 8 11 15 12 12 19 19 11 7 5 3 2 355 353 356 0 360 358 358 357 355 353 350 349 350 348 345 344 342 342 341 287 245 230 223 225 222 221 216 211
53 54 57 61 63 60 68 70 70 70 68 70 64 58 53 49 41 45 45 43 45 71 48 348 36 43 45 58 61 51 34 35 20 286 345 333 27 25 30 11 18 25 22 12 3 6 10 12 12 10 10 15 8 4 1 358 357 357 353 357 0 359 357 356 356 354 352 348 347 347 346 345 344 343 346 350 348 310 248 234 225 225 220 217 209
50 50 56 62 65 63 67 73 75 66 68 61 63 53 53 44 45 46 50 51 54 69 66 38 63 37 36 48 46 49 46 51 37 47 324 319 313 35 67 352 17 31 24 11 0 6 3 14 10 7 5 8 5 2 359 354 349 347 343 356 357 357 355 356 356 352 350 346 345 346 344 343 343 344 347 351 348 344 316 245 228 222 222 215 210
44 50 48 52 56 67 66 72 71 66 63 62 56 55 58 61 57 55 58 55 57 65 69 57 55 42 39 30 40 40 40 47 35 32 46 342 303 360 340 0 95 16 12 13 357 2 3 12 7 4 1 5 1 358 355 351 346 343 343 353 354 354 352 354 353 350 347 346 345 345 342 341 341 342 347 348 348 344 342 294 232 226 220 218 211
51 49 50 47 57 60 68 71 73 69 64 68 67 66 64 67 67 73 71 70 59 64 71 69 64 57 57 51 43 21 33 26 28 18 34 66 2 334 349 349 344 353 22 1 351 352 355 5 3 1 2 3 357 353 350 348 344 339 346 350 351 351 350 351 349 348 347 347 344 343 341 340 341 342 346 345 343 343 339 340 291 229 225 222 214
48 47 49 50 60 64 70 70 67 67 66 65 67 74 73 74 73 71 68 72 71 72 71 67 68 63 56 55 59 53 56 53 22 22 40 12 352 349 342 348 321 323 358 357 337 341 348 4 360 357 360 355 353 349 346 342 340 341 345 348 349 348 348 347 345 344 345 343 342 340 339 340 340 342 342 343 339 338 341 338 343 315 234 225 216
57 58 46 53 67 66 68 68 66 67 67 74 74 76 76 74 69 72 71 70 73 74 73 72 70 70 63 61 65 65 59 59 47 45 42 34 25 329 336 329 317 248 309 335 312 338 339 8 357 351 352 349 347 345 340 338 335 340 342 345 346 344 344 343 341 340 339 338 338 337 337 338 340 338 340 339 338 335 337 341 347 351 319 230 220
59 67 50 58 69 68 65 67 68 69 79 77 76 76 78 78 78 75 75 73 75 79 78 75 76 76 78 69 71 67 66 60 62 60 45 40 42 2 327 323 294 311 326 352 335 328 337 15 354 342 344 346 342 342 338 336 334 337 339 338 340 339 338 338 338 338 337 337 337 336 335 335 336 336 336 337 334 335 333 337 342 343 349 330 242
85 73 70 73 64 69 74 71 70 74 78 80 79 81 82 84 82 82 81 82 80 80 81 80 76 76 78 77 67 68 67 58 60 59 48 39 24 19 319 313 265 288 309 324 329 346 313 1 350 325 334 340 338 335 336 333 330 334 338 338 332 333 333 330 333 335 335 335 332 332 331 331 332 333 335 333 332 329 332 329 337 342 342 345 320
89 83 72 74 74 71 71 69 65 69 74 78 80 79 83 84 85 88 83 83 82 81 78 80 78 76 72 76 76 61 53 44 47 37 40 37 32 357 10 357 344 320 336 306 309 316 287 319 337 310 334 334 333 332 330 330 327 331 337 334 325 324 324 323 329 332 332 330 327 323 327 326 326 330 330 330 325 329 326 330 331 337 336 336 338
87 84 66 81 79 76 68 66 67 68 71 80 83 85 86 87 86 84 84 81 86 82 82 81 81 79 79 72 68 55 43 33 32 32 27 25 18 17 22 32 22 340 338 332 342 320 319 329 317 257 334 332 326 327 324 324 320 325 329 325 324 320 319 321 326 330 327 323 320 323 322 321 320 324 325 323 325 324 325 326 329 329 330 329 325
96 89 87 77 79 79 75 67 64 67 68 69 81 86 83 86 91 91 88 83 84 85 85 85 86 84 74 67 68 61 43 37 34 33 28 23 22 11 24 35 4 346 337 330 320 326 324 340 336 321 332 326 323 321 318 316 314 320 322 321 316 318 314 323 327 322 322 318 320 319 319 314 319 320 321 321 321 320 320 322 322 322 323 321 319
99 95 89 81 73 74 77 71 67 64 67 66 73 79 85 85 90 91 98 94 88 84 84 92 90 85 76 63 57 55 40 43 37 26 27 25 18 11 359 350 44 354 303 309 302 298 298 317 318 313 325 324 323 319 318 313 311 319 316 314 314 310 317 322 319 317 317 316 316 317 313 313 313 316 315 316 315 314 315 317 317 317 319 315 319
98 94 88 83 81 72 75 74 67 66 63 63 69 73 87 97 96 98 97 97 96 91 91 95 90 84 77 67 52 55 40 44 33 20 14 16 5 1 342 331 324 268 279 265 308 268 315 308 305 304 309 314 317 315 315 312 310 316 313 307 306 309 316 313 312 313 313 313 315 312 317 312 313 309 310 308 310 311 312 313 312 314 313 314 314
95 93 88 88 85 83 74 77 73 67 67 60 67 80 88 98 106 102 102 102 97 98 89 80 90 86 82 75 61 57 33 42 28 14 5 354 353 340 329 312 301 275 252 262 266 287 301 291 294 298 300 306 309 309 310 311 311 309 309 306 305 306 311 306 309 307 309 313 309 310 307 310 306 307 304 307 308 308 309 309 309 308 309 308 306
102 91 90 87 85 88 82 76 76 72 73 67 62 83 90 98 102 108 109 104 105 103 96 81 80 88 90 89 71 42 28 49 18 358 354 340 334 323 303 301 305 300 281 272 286 296 294 277 290 295 300 301 302 300 303 307 310 310 304 305 302 306 305 303 303 304 308 307 306 304 304 302 303 302 306 304 303 304 304 303 301 301 301 300 301
95 97 91 87 87 91 88 82 79 77 75 74 71 82 95 101 103 115 113 110 106 104 98 97 88 91 103 94 56 13 9 35 358 341 318 319 318 321 318 314 306 306 297 269 279 291 302 308 298 295 295 298 296 298 301 307 304 305 309 306 304 298 303 299 301 302 302 302 303 302 300 298 297 299 298 297 297 298 299 297 296 296 296 296 294
82 89 94 91 90 91 89 84 84 78 74 77 69 83 90 104 111 116 123 120 120 118 117 125 124 118 92 90 68 328 350 354 322 297 299 306 311 317 310 312 306 299 300 286 288 295 298 301 301 304 302 304 299 301 301 295 295 298 301 303 304 304 294 296 294 298 299 301 299 298 297 295 294 293 295 293 293 292 293 293 292 293 295 292 287
96 82 81 88 89 90 91 84 79 80 74 73 72 70 84 101 112 122 128 126 127 133 137 144 144 133 131 106 131 288 297 309 309 313 316 317 319 315 312 306 299 298 296 294 277 275 291 300 305 302 303 307 299 294 295 294 295 296 294 295 297 293 292 289 293 294 300 298 298 297 294 291 290 290 289 290 288 288 288 288 288 291 294 291 286
97 97 84 80 86 83 85 87 84 75 71 72 77 73 70 83 102 114 128 131 135 142 150 160 163 147 135 136 207 250 258 301 322 330 321 328 322 319 306 301 302 294 296 295 292 282 286 295 298 295 298 293 290 294 297 301 303 294 293 292 293 295 292 288 286 294 296 296 295 294 291 286 286 286 285 284 284 283 283 283 283 285 288 288 291
102 91 96 84 88 88 85 83 81 78 71 71 76 79 76 77 81 85 97 126 144 151 153 167 163 152 135 161 217 235 242 272 303 309 320 320 316 311 309 305 301 300 300 300 297 295 293 289 294 304 303 304 306 298 300 303 305 306 302 291 286 288 296 299 294 288 285 289 297 299 292 287 284 282 281 280 281 278 278 279 279 280 282 282 284
111 104 90 91 81 89 86 81 74 77 74 67 68 66 72 77 86 90 104 122 144 148 178 176 165 113 143 186 222 229 246 259 280 294 304 309 309 309 304 301 302 307 305 305 305 304 300 299 298 289 297 298 298 304 308 300 297 295 301 305 302 295 281 289 299 292 284 287 277 273 278 281 286 286 280 279 278 277 276 277 277 279 278 277 276
106 104 100 95 87 83 81 78 73 74 73 64 55 52 54 67 86 84 102 149 160 187 227 214 87 130 188 223 233 240 246 263 270 283 288 298 304 301 304 308 310 311 310 308 309 307 306 304 299 305 303 307 307 293 296 307 305 296 286 299 303 310 310 297 283 300 302 293 293 290 273 277 278 277 277 277 278 278 275 274 276 277 276 275 271
102 101 99 97 97 85 74 76 71 64 66 54 48 47 64 56 74 85 67 83 170 191 217 4 100 157 218 242 257 267 266 281 284 302 307 302 299 303 308 316 313 314 307 308 306 309 306 304 304 303 308 311 309 312 316 315 315 309 311 304 296 296 297 301 299 285 285 295 294 284 285 281 286 281 280 278 273 273 272 272 274 276 275 274 272
108 105 96 92 90 95 89 75 70 64 56 44 32 37 66 91 76 83 80 72 83 101 322 36 2 148 228 251 272 277 298 312 315 313 310 310 309 311 312 319 316 310 307 309 313 311 310 311 312 315 316 314 313 314 309 307 304 305 304 308 305 306 303 297 291 284 293 283 289 292 284 277 276 278 266 268 269 266 266 266 261 266 267 266 265
113 109 101 95 88 87 90 88 75 66 54 42 32 66 77 84 85 79 84 68 51 60 28 135 201 199 240 264 275 305 319 323 322 312 311 313 315 318 320 319 315 314 314 319 308 310 311 310 309 313 311 308 309 308 308 306 310 310 311 309 307 309 310 314 313 309 185 280 292 290 291 271 271 279 275 265 269 265 258 258 262 264 265 265 265
114 104 100 100 99 95 91 82 76 70 61 38 51 70 74 72 79 86 85 75 57 27 10 155 180 188 237 277 295 300 314 312 308 320 317 315 318 319 319 317 317 314 311 304 312 316 316 315 315 312 310 309 309 313 310 313 313 311 306 304 306 309 309 307 302 298 307 304 291 293 288 299 274 269 274 270 264 262 259 259 260 262 264 264 263
117 109 116 106 100 97 92 87 76 64 65 46 66 79 79 75 75 81 71 81 80 40 0 206 171 185 231 283 295 306 322 316 321 322 317 318 319 320 318 320 316 319 314 312 302 293 294 305 306 308 310 310 312 309 310 309 310 307 309 309 309 305 300 296 295 297 298 298 293 286 288 299 286 280 275 273 266 263 263 259 260 261 262 262 261
117 115 109 110 109 94 96 94 88 73 65 52 76 84 80 73 66 66 55 54 61 50 27 31 152 211 232 265 312 323 317 314 313 320 328 324 322 320 322 319 315 311 311 305 305 305 309 302 302 303 304 307 303 303 305 308 310 310 312 310 309 304 302 296 294 290 287 291 287 291 284 292 283 278 276 277 269 267 263 262 260 261 261 261 259
136 135 131 119 111 101 93 92 89 72 58 66 88 89 87 82 74 69 46 41 38 34 18 33 49 16 301 277 285 291 296 299 306 318 334 328 319 317 317 320 314 311 306 305 309 317 317 312 304 298 299 301 298 301 304 306 303 302 303 304 306 303 296 290 284 279 284 284 280 281 286 297 283 279 277 281 280 272 267 264 259 259 259 258 256
116 109 103 106 110 110 101 95 93 83 61 71 90 85 81 75 70 57 53 46 33 19 13 7 2 346 313 307 320 302 295 302 307 321 338 331 322 321 325 316 313 306 301 294 302 308 309 306 306 304 303 301 303 305 305 307 306 304 304 302 299 296 298 298 293 298 287 295 284 283 285 287 280 279 285 281 279 275 271 263 260 258 258 256 254
139 139 146 136 139 130 123 114 111 112 102 96 98 96 90 88 71 53 51 50 38 19 349 330 326 309 310 311 298 295 302 306 313 323 337 337 326 328 322 318 309 312 313 319 322 319 314 312 309 307 305 306 308 308 308 306 305 312 317 311 306 310 304 304 302 306 304 309 300 282 278 278 279 284 286 283 280 277 274 268 263 257 255 254 253
151 159 145 129 146 145 136 144 147 136 161 170 92 80 81 79 90 97 80 78 40 18 339 321 306 307 315 323 314 300 311 312 322 322 333 340 330 323 325 318 325 330 326 326 325 317 313 311 310 310 309 311 312 312 309 310 314 322 324 317 310 308 305 305 307 310 308 304 292 295 287 275 292 291 292 293 290 273 270 268 263 258 255 253 253
156 150 145 143 154 162 159 156 171 155 181 209 64 55 72 92 105 110 104 85 55 7 354 338 332 349 329 316 316 320 315 318 321 324 332 344 325 323 315 323 331 332 325 327 323 325 330 330 326 324 321 319 317 318 317 316 318 322 321 310 305 305 307 310 310 309 305 288 298 310 289 290 291 287 293 301 292 283 256 261 258 261 258 253 248